QPF
0.00 0.00 0.00 0.00 0.00 0.00 0.01 0.02 0.02 0.03 0.04 0.03 0.02 0.01 0.01 0.01 0.01 0.00 0.00 0.00 0.00 0.00 0.01 0.02 0.02 0.02 0.02 0.02 0.01 0.01 0.00 0.00 0.00 0.01 0.01 0.01 0.03 0.05 0.05 0.07 0.11 0.07 0.03
0.00 0.00 0.00 0.00 0.00 0.00 0.01 0.02 0.03 0.04 0.04 0.04 0.04 0.02 0.01 0.01 0.01 0.00 0.00 0.00 0.00 0.01 0.01 0.01 0.02 0.02 0.02 0.01 0.01 0.01 0.01 0.01 0.01 0.01 0.01 0.01 0.02 0.05 0.05 0.06 0.14 0.06 0.02
0.00 0.00 0.00 0.00 0.00 0.00 0.01 0.02 0.03 0.03 0.04 0.04 0.03 0.02 0.02 0.01 0.01 0.00 0.00 0.00 0.01 0.01 0.01 0.01 0.01 0.01 0.02 0.01 0.00 0.00 0.00 0.01 0.03 0.07 0.14 0.13 0.02 0.02 0.06 0.09 0.10 0.04 0.03
0.00 0.00 0.00 0.00 0.00 0.00 0.00 0.01 0.02 0.02 0.03 0.03 0.03 0.02 0.02 0.01 0.01 0.02 0.01 0.00 0.01 0.01 0.02 0.01 0.01 0.01 0.01 0.00 0.00 0.00 0.00 0.01 0.04 0.13 0.31 0.18 0.04 0.01 0.03 0.06 0.05 0.03 0.02
0.00 0.00 0.00 0.00 0.00 0.00 0.00 0.01 0.01 0.02 0.03 0.03 0.03 0.02 0.02 0.01 0.01 0.01 0.01 0.00 0.01 0.01 0.01 0.01 0.01 0.02 0.01 0.00 0.00 0.01 0.01 0.02 0.05 0.16 0.20 0.18 0.13 0.02 0.02 0.04 0.04 0.03 0.02
0.00 0.00 0.00 0.00 0.00 0.00 0.00 0.00 0.01 0.02 0.02 0.02 0.02 0.02 0.02 0.01 0.01 0.01 0.01 0.01 0.01 0.02 0.02 0.01 0.01 0.01 0.01 0.00 0.00 0.00 0.01 0.02 0.07 0.13 0.09 0.13 0.11 0.02 0.02 0.02 0.03 0.04 0.03
0.00 0.00 0.00 0.00 0.00 0.00 0.00 0.00 0.01 0.01 0.01 0.02 0.02 0.02 0.01 0.01 0.01 0.01 0.01 0.01 0.02 0.02 0.02 0.01 0.01 0.01 0.01 0.00 0.00 0.00 0.00 0.01 0.09 0.10 0.07 0.14 0.11 0.01 0.02 0.02 0.03 0.04 0.03
0.00 0.00 0.00 0.00 0.00 0.00 0.00 0.00 0.01 0.01 0.01 0.01 0.01 0.01 0.01 0.01 0.01 0.01 0.01 0.01 0.01 0.01 0.01 0.01 0.01 0.01 0.01 0.00 0.00 0.00 0.00 0.01 0.05 0.06 0.05 0.12 0.07 0.01 0.01 0.03 0.04 0.04 0.04
0.00 0.00 0.00 0.00 0.00 0.00 0.00 0.00 0.00 0.00 0.01 0.01 0.01 0.01 0.01 0.01 0.01 0.01 0.01 0.01 0.01 0.01 0.01 0.01 0.01 0.01 0.00 0.00 0.00 0.00 0.00 0.00 0.03 0.04 0.06 0.10 0.03 0.01 0.01 0.02 0.03 0.04 0.04
0.03 0.02 0.01 0.02 0.02 0.01 0.01 0.00 0.00 0.01 0.01 0.01 0.01 0.01 0.01 0.01 0.01 0.02 0.02 0.02 0.01 0.01 0.01 0.01 0.01 0.01 0.01 0.00 0.00 0.00 0.00 0.00 0.01 0.01 0.05 0.09 0.03 0.01 0.01 0.01 0.03 0.04 0.04
0.08 0.05 0.02 0.02 0.02 0.03 0.02 0.03 0.01 0.02 0.02 0.02 0.03 0.03 0.03 0.05 0.08 0.11 0.08 0.07 0.04 0.02 0.01 0.02 0.02 0.01 0.01 0.01 0.01 0.01 0.00 0.00 0.01 0.03 0.05 0.08 0.04 0.02 0.02 0.02 0.03 0.02 0.04
0.01 0.02 0.02 0.03 0.03 0.02 0.04 0.07 0.07 0.07 0.10 0.07 0.11 0.11 0.09 0.11 0.11 0.11 0.16 0.11 0.05 0.03 0.03 0.04 0.03 0.02 0.02 0.05 0.08 0.06 0.01 0.01 0.01 0.03 0.05 0.06 0.05 0.03 0.03 0.03 0.03 0.03 0.03
0.01 0.02 0.03 0.04 0.05 0.05 0.08 0.10 0.10 0.11 0.14 0.10 0.11 0.12 0.16 0.19 0.13 0.11 0.15 0.15 0.12 0.08 0.09 0.12 0.09 0.07 0.07 0.10 0.12 0.11 0.06 0.02 0.02 0.02 0.04 0.04 0.04 0.03 0.03 0.04 0.04 0.03 0.04
0.02 0.03 0.03 0.04 0.06 0.06 0.06 0.06 0.07 0.08 0.09 0.09 0.15 0.15 0.22 0.28 0.24 0.27 0.26 0.21 0.19 0.17 0.16 0.16 0.15 0.12 0.09 0.09 0.10 0.10 0.07 0.03 0.01 0.04 0.12 0.13 0.06 0.03 0.03 0.03 0.04 0.04 0.05
0.02 0.02 0.03 0.05 0.07 0.07 0.07 0.08 0.06 0.11 0.14 0.14 0.17 0.17 0.18 0.22 0.24 0.32 0.31 0.27 0.22 0.18 0.17 0.18 0.16 0.17 0.15 0.11 0.08 0.08 0.08 0.05 0.03 0.03 0.11 0.17 0.10 0.05 0.03 0.02 0.02 0.03 0.06
0.04 0.05 0.06 0.06 0.07 0.07 0.08 0.09 0.10 0.09 0.11 0.13 0.15 0.16 0.16 0.20 0.22 0.21 0.19 0.20 0.19 0.18 0.18 0.18 0.17 0.19 0.17 0.14 0.10 0.08 0.08 0.09 0.07 0.06 0.08 0.13 0.10 0.04 0.03 0.03 0.02 0.03 0.05
0.07 0.09 0.09 0.09 0.09 0.08 0.10 0.10 0.13 0.11 0.10 0.14 0.13 0.12 0.13 0.15 0.18 0.18 0.17 0.18 0.17 0.16 0.17 0.16 0.18 0.20 0.16 0.16 0.14 0.10 0.10 0.10 0.08 0.08 0.07 0.09 0.10 0.09 0.05 0.04 0.03 0.03 0.03
0.10 0.12 0.12 0.09 0.10 0.11 0.10 0.09 0.08 0.07 0.07 0.07 0.08 0.09 0.07 0.08 0.10 0.12 0.14 0.12 0.11 0.09 0.11 0.12 0.15 0.17 0.16 0.15 0.13 0.10 0.10 0.11 0.08 0.08 0.10 0.10 0.10 0.08 0.10 0.09 0.06 0.04 0.04
0.09 0.11 0.12 0.11 0.10 0.06 0.04 0.04 0.04 0.05 0.04 0.04 0.04 0.05 0.04 0.04 0.07 0.07 0.08 0.07 0.06 0.06 0.07 0.06 0.08 0.09 0.11 0.11 0.09 0.09 0.08 0.09 0.08 0.07 0.07 0.07 0.08 0.07 0.08 0.12 0.09 0.05 0.04
0.08 0.07 0.07 0.06 0.05 0.04 0.04 0.05 0.05 0.04 0.03 0.03 0.03 0.03 0.02 0.02 0.02 0.03 0.04 0.04 0.03 0.02 0.03 0.03 0.04 0.04 0.04 0.04 0.05 0.06 0.06 0.05 0.06 0.07 0.06 0.06 0.06 0.05 0.04 0.10 0.15 0.07 0.05
0.08 0.06 0.07 0.05 0.03 0.04 0.04 0.05 0.05 0.04 0.03 0.02 0.01 0.01 0.01 0.01 0.01 0.01 0.02 0.03 0.02 0.02 0.02 0.02 0.02 0.02 0.02 0.03 0.04 0.03 0.03 0.03 0.03 0.03 0.04 0.05 0.03 0.04 0.06 0.10 0.12 0.10 0.07
0.03 0.03 0.03 0.04 0.03 0.04 0.04 0.04 0.04 0.04 0.02 0.01 0.01 0.01 0.01 0.01 0.01 0.01 0.02 0.02 0.02 0.03 0.03 0.04 0.04 0.03 0.02 0.03 0.03 0.03 0.02 0.02 0.03 0.02 0.03 0.04 0.03 0.04 0.05 0.06 0.10 0.11 0.07
0.02 0.02 0.04 0.05 0.04 0.04 0.03 0.03 0.03 0.02 0.01 0.01 0.01 0.02 0.01 0.00 0.01 0.02 0.02 0.02 0.03 0.03 0.03 0.04 0.04 0.04 0.03 0.03 0.03 0.04 0.03 0.02 0.03 0.03 0.04 0.04 0.06 0.08 0.07 0.06 0.08 0.10 0.08
0.01 0.02 0.03 0.03 0.03 0.02 0.02 0.02 0.02 0.02 0.02 0.02 0.01 0.01 0.02 0.01 0.01 0.01 0.02 0.03 0.03 0.02 0.03 0.03 0.03 0.04 0.04 0.03 0.03 0.03 0.03 0.03 0.03 0.03 0.03 0.04 0.05 0.06 0.07 0.08 0.10 0.13 0.12
0.01 0.01 0.02 0.03 0.03 0.02 0.01 0.01 0.02 0.02 0.01 0.01 0.01 0.01 0.02 0.01 0.01 0.01 0.03 0.03 0.04 0.02 0.03 0.03 0.03 0.03 0.03 0.03 0.02 0.02 0.03 0.03 0.03 0.03 0.03 0.03 0.05 0.05 0.06 0.06 0.07 0.15 0.18
0.00 0.01 0.01 0.02 0.03 0.02 0.01 0.01 0.02 0.01 0.01 0.01 0.01 0.01 0.01 0.01 0.01 0.01 0.02 0.03 0.03 0.03 0.03 0.03 0.03 0.02 0.02 0.03 0.02 0.02 0.02 0.03 0.03 0.03 0.03 0.03 0.04 0.04 0.04 0.06 0.07 0.09 0.11
MSLP
1008.85 1008.95 1009.18 1009.56 1010.11 1010.76 1011.43 1012.06 1012.58 1012.96 1013.22 1013.42 1013.61 1013.84 1014.13 1014.50 1014.89 1015.26 1015.57 1015.79 1015.91 1015.96 1015.97 1016.00 1016.06 1016.18 1016.33 1016.49 1016.63 1016.71 1016.73 1016.69 1016.63 1016.58 1016.57 1016.62 1016.74 1016.92 1017.12 1017.33 1017.53 1017.70 1017.86
1008.67 1008.88 1009.21 1009.69 1010.30 1010.97 1011.63 1012.21 1012.67 1013.01 1013.24 1013.43 1013.65 1013.92 1014.27 1014.68 1015.11 1015.50 1015.81 1016.00 1016.10 1016.14 1016.15 1016.19 1016.27 1016.41 1016.57 1016.73 1016.86 1016.92 1016.91 1016.86 1016.79 1016.76 1016.78 1016.88 1017.05 1017.26 1017.49 1017.72 1017.92 1018.09 1018.23
1008.45 1008.80 1009.27 1009.86 1010.54 1011.24 1011.90 1012.44 1012.86 1013.14 1013.35 1013.54 1013.76 1014.07 1014.45 1014.88 1015.31 1015.68 1015.96 1016.13 1016.20 1016.23 1016.25 1016.31 1016.43 1016.59 1016.77 1016.93 1017.03 1017.07 1017.04 1016.97 1016.91 1016.90 1016.96 1017.11 1017.33 1017.59 1017.86 1018.10 1018.30 1018.47 1018.61
1008.24 1008.74 1009.35 1010.07 1010.84 1011.59 1012.25 1012.77 1013.13 1013.38 1013.55 1013.73 1013.97 1014.28 1014.67 1015.10 1015.50 1015.83 1016.06 1016.18 1016.23 1016.25 1016.29 1016.38 1016.53 1016.72 1016.92 1017.08 1017.17 1017.17 1017.12 1017.04 1016.98 1017.00 1017.10 1017.30 1017.57 1017.88 1018.18 1018.44 1018.66 1018.83 1018.97
1008.08 1008.72 1009.48 1010.32 1011.18 1011.98 1012.65 1013.14 1013.47 1013.67 1013.82 1013.98 1014.21 1014.53 1014.91 1015.31 1015.67 1015.95 1016.11 1016.19 1016.21 1016.22 1016.28 1016.40 1016.59 1016.82 1017.04 1017.19 1017.26 1017.24 1017.16 1017.06 1017.01 1017.05 1017.19 1017.44 1017.76 1018.10 1018.43 1018.71 1018.94 1019.13 1019.29
1007.96 1008.72 1009.61 1010.58 1011.52 1012.37 1013.04 1013.51 1013.79 1013.96 1014.08 1014.23 1014.45 1014.76 1015.13 1015.49 1015.80 1016.02 1016.13 1016.16 1016.15 1016.16 1016.24 1016.41 1016.64 1016.90 1017.13 1017.28 1017.33 1017.28 1017.17 1017.06 1017.00 1017.05 1017.23 1017.51 1017.87 1018.24 1018.59 1018.89 1019.13 1019.33 1019.51
1007.88 1008.73 1009.72 1010.78 1011.80 1012.67 1013.34 1013.78 1014.03 1014.16 1014.26 1014.39 1014.62 1014.92 1015.27 1015.61 1015.88 1016.05 1016.11 1016.10 1016.08 1016.10 1016.20 1016.40 1016.66 1016.95 1017.19 1017.33 1017.36 1017.29 1017.15 1017.02 1016.96 1017.03 1017.22 1017.53 1017.90 1018.29 1018.66 1018.96 1019.21 1019.42 1019.63
1007.81 1008.71 1009.78 1010.90 1011.95 1012.84 1013.49 1013.90 1014.11 1014.22 1014.30 1014.43 1014.66 1014.97 1015.33 1015.65 1015.90 1016.03 1016.06 1016.03 1015.99 1016.02 1016.14 1016.37 1016.66 1016.97 1017.22 1017.35 1017.36 1017.27 1017.11 1016.97 1016.90 1016.97 1017.18 1017.50 1017.89 1018.28 1018.65 1018.95 1019.19 1019.41 1019.63
1007.74 1008.66 1009.76 1010.91 1011.97 1012.84 1013.47 1013.85 1014.03 1014.11 1014.19 1014.34 1014.58 1014.92 1015.28 1015.61 1015.85 1015.97 1015.98 1015.94 1015.90 1015.94 1016.08 1016.32 1016.64 1016.95 1017.20 1017.33 1017.32 1017.21 1017.04 1016.90 1016.84 1016.91 1017.13 1017.46 1017.84 1018.24 1018.59 1018.88 1019.11 1019.33 1019.55
1007.69 1008.61 1009.70 1010.84 1011.88 1012.72 1013.31 1013.65 1013.81 1013.88 1013.97 1014.14 1014.42 1014.78 1015.17 1015.52 1015.76 1015.89 1015.90 1015.86 1015.83 1015.87 1016.02 1016.27 1016.59 1016.90 1017.14 1017.26 1017.24 1017.12 1016.96 1016.82 1016.77 1016.85 1017.08 1017.41 1017.80 1018.19 1018.53 1018.80 1019.02 1019.22 1019.44
1007.71 1008.59 1009.65 1010.75 1011.74 1012.54 1013.08 1013.38 1013.53 1013.60 1013.70 1013.90 1014.22 1014.61 1015.03 1015.41 1015.67 1015.81 1015.83 1015.80 1015.77 1015.82 1015.97 1016.22 1016.52 1016.82 1017.04 1017.15 1017.13 1017.01 1016.85 1016.72 1016.69 1016.80 1017.04 1017.38 1017.77 1018.15 1018.48 1018.74 1018.95 1019.13 1019.34
1007.84 1008.67 1009.67 1010.70 1011.63 1012.36 1012.85 1013.13 1013.26 1013.34 1013.46 1013.69 1014.04 1014.47 1014.92 1015.32 1015.60 1015.76 1015.80 1015.78 1015.77 1015.81 1015.95 1016.18 1016.46 1016.73 1016.93 1017.02 1016.99 1016.87 1016.73 1016.62 1016.60 1016.73 1016.98 1017.33 1017.73 1018.11 1018.44 1018.70 1018.90 1019.07 1019.26
1008.12 1008.89 1009.81 1010.75 1011.60 1012.26 1012.70 1012.95 1013.07 1013.16 1013.31 1013.56 1013.93 1014.39 1014.85 1015.27 1015.57 1015.75 1015.81 1015.81 1015.81 1015.85 1015.98 1016.18 1016.43 1016.66 1016.82 1016.88 1016.84 1016.72 1016.58 1016.48 1016.49 1016.62 1016.88 1017.24 1017.64 1018.03 1018.37 1018.64 1018.85 1019.01 1019.19
1008.58 1009.26 1010.09 1010.93 1011.68 1012.27 1012.66 1012.88 1013.00 1013.10 1013.26 1013.53 1013.91 1014.36 1014.83 1015.25 1015.56 1015.76 1015.85 1015.87 1015.88 1015.93 1016.05 1016.22 1016.42 1016.61 1016.72 1016.75 1016.68 1016.56 1016.41 1016.32 1016.32 1016.46 1016.72 1017.07 1017.47 1017.86 1018.21 1018.50 1018.72 1018.90 1019.08
1009.18 1009.77 1010.49 1011.22 1011.87 1012.37 1012.72 1012.92 1013.03 1013.14 1013.31 1013.57 1013.94 1014.37 1014.82 1015.23 1015.55 1015.76 1015.88 1015.93 1015.97 1016.04 1016.14 1016.29 1016.45 1016.58 1016.65 1016.63 1016.54 1016.38 1016.23 1016.12 1016.10 1016.21 1016.45 1016.77 1017.15 1017.54 1017.90 1018.21 1018.46 1018.67 1018.87
1009.87 1010.36 1010.95 1011.56 1012.11 1012.54 1012.84 1013.03 1013.14 1013.25 1013.41 1013.65 1013.98 1014.37 1014.78 1015.16 1015.48 1015.71 1015.85 1015.95 1016.03 1016.12 1016.23 1016.36 1016.49 1016.58 1016.59 1016.53 1016.40 1016.21 1016.03 1015.88 1015.83 1015.89 1016.07 1016.35 1016.69 1017.05 1017.40 1017.72 1018.01 1018.25 1018.49
1010.56 1010.94 1011.40 1011.89 1012.34 1012.71 1012.97 1013.15 1013.27 1013.37 1013.52 1013.72 1014.00 1014.33 1014.68 1015.02 1015.32 1015.56 1015.75 1015.90 1016.03 1016.16 1016.29 1016.42 1016.52 1016.57 1016.55 1016.44 1016.27 1016.05 1015.83 1015.64 1015.53 1015.53 1015.63 1015.82 1016.09 1016.40 1016.73 1017.04 1017.35 1017.64 1017.91
1011.17 1011.44 1011.78 1012.15 1012.51 1012.82 1013.06 1013.24 1013.36 1013.47 1013.59 1013.76 1013.97 1014.22 1014.51 1014.80 1015.08 1015.33 1015.56 1015.76 1015.95 1016.13 1016.29 1016.42 1016.51 1016.54 1016.49 1016.36 1016.15 1015.91 1015.65 1015.42 1015.25 1015.17 1015.17 1015.27 1015.44 1015.67 1015.93 1016.23 1016.53 1016.84 1017.16
1011.64 1011.80 1012.03 1012.30 1012.59 1012.86 1013.09 1013.27 1013.41 1013.52 1013.63 1013.74 1013.89 1014.07 1014.28 1014.51 1014.77 1015.03 1015.29 1015.54 1015.79 1016.02 1016.22 1016.37 1016.47 1016.48 1016.42 1016.27 1016.06 1015.80 1015.52 1015.26 1015.04 1014.87 1014.78 1014.76 1014.82 1014.94 1015.12 1015.36 1015.64 1015.96 1016.30
1011.93 1012.00 1012.14 1012.34 1012.57 1012.82 1013.05 1013.26 1013.42 1013.54 1013.63 1013.71 1013.80 1013.90 1014.04 1014.22 1014.44 1014.70 1014.98 1015.29 1015.58 1015.86 1016.09 1016.27 1016.37 1016.39 1016.33 1016.19 1015.98 1015.73 1015.46 1015.19 1014.93 1014.70 1014.52 1014.39 1014.33 1014.33 1014.41 1014.56 1014.79 1015.08 1015.42
1012.06 1012.07 1012.14 1012.28 1012.48 1012.72 1012.98 1013.21 1013.41 1013.56 1013.65 1013.70 1013.73 1013.77 1013.85 1013.97 1014.16 1014.41 1014.71 1015.04 1015.37 1015.68 1015.94 1016.13 1016.24 1016.27 1016.22 1016.10 1015.93 1015.72 1015.47 1015.22 1014.95 1014.69 1014.44 1014.22 1014.04 1013.92 1013.89 1013.94 1014.09 1014.33 1014.64
1012.03 1012.01 1012.05 1012.16 1012.36 1012.61 1012.90 1013.18 1013.42 1013.60 1013.70 1013.74 1013.74 1013.73 1013.75 1013.83 1013.98 1014.21 1014.50 1014.84 1015.18 1015.50 1015.77 1015.97 1016.09 1016.13 1016.11 1016.02 1015.89 1015.73 1015.54 1015.33 1015.09 1014.82 1014.53 1014.25 1013.98 1013.76 1013.61 1013.56 1013.61 1013.77 1014.02
1011.90 1011.88 1011.92 1012.04 1012.24 1012.52 1012.85 1013.18 1013.47 1013.69 1013.81 1013.85 1013.84 1013.80 1013.78 1013.81 1013.93 1014.13 1014.40 1014.72 1015.06 1015.37 1015.63 1015.82 1015.94 1015.99 1015.98 1015.93 1015.86 1015.76 1015.64 1015.48 1015.29 1015.05 1014.76 1014.44 1014.12 1013.82 1013.58 1013.42 1013.37 1013.44 1013.60
1011.70 1011.72 1011.79 1011.93 1012.17 1012.48 1012.85 1013.22 1013.56 1013.81 1013.97 1014.03 1014.01 1013.96 1013.92 1013.92 1014.00 1014.16 1014.40 1014.69 1015.00 1015.28 1015.52 1015.69 1015.79 1015.84 1015.84 1015.82 1015.79 1015.76 1015.70 1015.62 1015.49 1015.30 1015.04 1014.73 1014.38 1014.03 1013.73 1013.49 1013.35 1013.32 1013.39
1011.46 1011.56 1011.68 1011.87 1012.14 1012.49 1012.89 1013.30 1013.67 1013.96 1014.15 1014.23 1014.23 1014.18 1014.13 1014.11 1014.15 1014.28 1014.48 1014.72 1014.98 1015.22 1015.42 1015.55 1015.63 1015.67 1015.67 1015.67 1015.68 1015.69 1015.69 1015.68 1015.61 1015.48 1015.27 1014.99 1014.65 1014.30 1013.96 1013.67 1013.46 1013.34 1013.32
1011.25 1011.43 1011.62 1011.86 1012.17 1012.54 1012.96 1013.39 1013.78 1014.10 1014.32 1014.43 1014.45 1014.41 1014.35 1014.32 1014.34 1014.43 1014.58 1014.77 1014.98 1015.17 1015.31 1015.41 1015.46 1015.47 1015.47 1015.47 1015.49 1015.53 1015.58 1015.61 1015.60 1015.52 1015.37 1015.14 1014.84 1014.51 1014.17 1013.86 1013.61 1013.43 1013.32
Thickness
5838 5830 5822 5818 5814 5810 5806 5803 5799 5796 5793 5789 5786 5784 5781 5778 5776 5774 5772 5770 5768 5766 5764 5763 5761 5760 5759 5758 5757 5756 5755 5755 5754 5754 5753 5752 5750 5749 5748 5747 5747 5745 5744
5838 5828 5820 5816 5812 5808 5805 5801 5798 5794 5791 5788 5785 5782 5779 5777 5774 5772 5770 5768 5766 5765 5763 5761 5760 5759 5757 5756 5756 5755 5754 5753 5753 5752 5751 5750 5748 5747 5746 5746 5746 5743 5742
5835 5826 5819 5814 5810 5806 5803 5800 5796 5793 5789 5786 5783 5780 5778 5775 5773 5770 5768 5767 5765 5763 5762 5760 5758 5757 5756 5755 5754 5753 5753 5752 5751 5751 5750 5749 5747 5745 5745 5744 5743 5741 5740
5833 5825 5818 5811 5807 5804 5800 5797 5794 5791 5787 5784 5781 5779 5776 5774 5771 5769 5767 5765 5763 5762 5760 5758 5757 5755 5754 5753 5752 5752 5751 5751 5751 5750 5750 5749 5747 5743 5743 5742 5741 5739 5738
5832 5822 5813 5809 5804 5801 5797 5794 5791 5788 5785 5782 5779 5777 5774 5772 5769 5767 5765 5763 5762 5760 5758 5757 5755 5754 5753 5751 5751 5750 5750 5750 5750 5750 5750 5749 5745 5742 5741 5740 5739 5738 5737
5828 5819 5810 5806 5802 5798 5795 5791 5788 5785 5783 5780 5777 5775 5772 5770 5767 5765 5763 5761 5760 5758 5757 5755 5754 5752 5751 5750 5749 5749 5749 5749 5750 5751 5750 5748 5744 5742 5740 5738 5737 5736 5735
5826 5816 5808 5803 5799 5795 5791 5788 5785 5782 5780 5777 5775 5772 5770 5768 5765 5763 5761 5759 5758 5756 5755 5753 5752 5750 5749 5748 5747 5747 5747 5748 5750 5751 5750 5747 5744 5741 5739 5738 5736 5735 5734
5826 5815 5805 5800 5796 5792 5788 5785 5782 5779 5777 5774 5772 5769 5767 5765 5763 5761 5759 5757 5756 5754 5753 5751 5750 5749 5747 5746 5745 5745 5745 5746 5750 5751 5749 5746 5743 5740 5738 5737 5735 5734 5733
5826 5814 5804 5798 5793 5789 5785 5782 5779 5776 5774 5771 5769 5766 5764 5763 5761 5759 5757 5755 5754 5752 5750 5749 5748 5747 5746 5745 5744 5743 5744 5745 5746 5750 5748 5744 5741 5740 5738 5736 5734 5733 5732
5821 5813 5805 5799 5793 5788 5784 5780 5777 5774 5771 5769 5766 5764 5762 5760 5758 5757 5755 5753 5751 5750 5748 5747 5746 5745 5744 5743 5742 5742 5742 5743 5746 5749 5747 5743 5740 5738 5737 5736 5734 5733 5731
5816 5811 5807 5800 5793 5789 5785 5780 5775 5772 5769 5766 5764 5761 5759 5758 5757 5755 5753 5749 5748 5747 5746 5745 5745 5744 5743 5742 5741 5740 5740 5742 5746 5748 5746 5743 5740 5738 5737 5735 5734 5732 5731
5807 5807 5806 5800 5794 5790 5786 5779 5775 5772 5769 5765 5764 5760 5757 5755 5754 5752 5751 5748 5746 5745 5744 5743 5743 5742 5741 5742 5741 5739 5739 5741 5745 5747 5745 5743 5741 5739 5737 5735 5733 5732 5731
5805 5803 5801 5797 5791 5788 5783 5777 5775 5773 5768 5765 5762 5759 5756 5753 5751 5749 5747 5745 5743 5742 5741 5741 5739 5739 5740 5741 5741 5738 5738 5741 5744 5746 5744 5742 5740 5739 5737 5735 5733 5731 5730
5800 5797 5795 5792 5787 5783 5780 5776 5773 5770 5766 5764 5759 5755 5752 5749 5747 5745 5743 5742 5741 5740 5740 5739 5737 5737 5738 5739 5738 5737 5737 5740 5741 5742 5740 5738 5737 5736 5736 5735 5733 5732 5730
5793 5791 5789 5786 5781 5777 5774 5771 5768 5764 5761 5758 5756 5753 5748 5745 5743 5741 5738 5738 5737 5737 5737 5735 5734 5734 5734 5734 5735 5736 5736 5738 5739 5738 5738 5736 5734 5734 5734 5734 5733 5731 5730
5787 5784 5782 5778 5775 5771 5767 5763 5761 5760 5757 5754 5751 5748 5744 5742 5739 5737 5736 5735 5734 5733 5732 5731 5730 5730 5730 5730 5731 5732 5734 5736 5737 5736 5735 5733 5732 5732 5732 5732 5732 5731 5730
5781 5780 5777 5773 5771 5766 5762 5758 5756 5755 5753 5750 5747 5744 5740 5738 5735 5733 5733 5732 5731 5730 5729 5729 5727 5726 5726 5727 5727 5729 5730 5732 5733 5733 5733 5733 5732 5731 5731 5731 5730 5730 5730
5776 5774 5772 5770 5765 5760 5758 5755 5753 5752 5749 5747 5744 5740 5737 5735 5733 5730 5729 5729 5728 5727 5726 5725 5724 5722 5721 5721 5722 5724 5727 5728 5729 5730 5731 5731 5731 5731 5730 5729 5729 5728 5728
5772 5769 5765 5763 5759 5756 5754 5752 5751 5749 5747 5745 5742 5738 5734 5732 5730 5728 5726 5725 5724 5723 5723 5722 5719 5716 5715 5715 5717 5720 5723 5724 5725 5727 5728 5729 5729 5730 5729 5728 5727 5727 5727
5768 5764 5761 5758 5756 5754 5751 5748 5747 5746 5745 5742 5739 5735 5731 5729 5727 5724 5723 5721 5720 5719 5717 5715 5713 5712 5711 5711 5713 5716 5717 5720 5722 5723 5725 5726 5727 5728 5728 5727 5726 5725 5725
5761 5759 5758 5755 5753 5751 5747 5744 5741 5740 5740 5739 5737 5733 5729 5726 5723 5721 5718 5717 5715 5713 5712 5710 5708 5705 5705 5707 5705 5705 5710 5716 5718 5721 5722 5723 5725 5726 5726 5726 5725 5724 5724
5758 5757 5755 5752 5751 5748 5745 5742 5739 5737 5736 5737 5734 5730 5727 5723 5719 5717 5713 5710 5709 5707 5705 5704 5701 5698 5698 5701 5697 5694 5694 5701 5710 5718 5719 5719 5721 5722 5723 5723 5723 5724 5724
5758 5756 5755 5751 5749 5746 5743 5741 5738 5734 5732 5730 5728 5725 5722 5719 5715 5712 5709 5706 5703 5701 5699 5697 5696 5693 5690 5692 5693 5689 5684 5685 5692 5703 5709 5712 5714 5715 5717 5719 5720 5721 5721
5759 5757 5753 5749 5746 5743 5740 5736 5731 5727 5723 5723 5722 5721 5718 5715 5712 5709 5705 5702 5698 5695 5693 5691 5692 5688 5686 5683 5686 5687 5687 5686 5680 5683 5693 5700 5706 5707 5710 5713 5715 5717 5718
5761 5757 5752 5747 5743 5739 5735 5732 5727 5722 5720 5719 5717 5714 5712 5711 5709 5706 5703 5698 5694 5690 5688 5686 5684 5682 5680 5678 5677 5678 5679 5680 5680 5675 5676 5685 5692 5698 5702 5706 5709 5711 5712
5761 5757 5752 5744 5739 5735 5731 5728 5723 5718 5714 5711 5709 5707 5706 5706 5705 5703 5700 5694 5689 5686 5683 5680 5679 5677 5675 5673 5671 5670 5670 5669 5670 5670 5670 5674 5679 5687 5694 5699 5702 5705 5707